{"data":{"norad_id":56807,"epoch":"2026-09-20T22:00:03.000096Z","epoch_age_seconds":81803,"freshness":"FRESH","line1":"1 56807U 23078AS  26263.91670139  .00014291  00000+0  10474-2 0  9995","line2":"2 56807  70.0006 192.0001 0003704 252.2494  48.9762 15.03625837  5760","mean_motion":15.03625837,"eccentricity":0.0003704,"inclination_deg":70.0006,"raan_deg":192.0001,"arg_perigee_deg":252.2494,"mean_anomaly_deg":48.9762,"bstar":0.0010474,"rev_number":576,"period_min":95.768506004995,"perigee_km":553.15873439263,"apogee_km":558.29534087171,"semimajor_km":6933.8640376322,"source":"CELESTRAK","updated_at":"2026-09-21T09:00:33.511786Z"}}